This demonstration page uses our WeatherBlox Daily Observations layout. Learn more.

Left ArrowRight Arrow

Hourly Observations for August 24, 2018

Temp ( °F °C ) Dew Point ( °F °C ) Humidity (%) Winds ( mph kmh ) Pressure ( in mb ) Visibility ( mi km ) Precip ( " mm )
12:15 am 00:15 Clear 56 13.5 56 13.5 100 100 Calm 30.09 1019 10 16 0.00 0.00
12:35 am 00:35 Clear 55 12.8 55 12.8 100 100 Calm 30.12 1020 10 16 0.00 0.00
12:55 am 00:55 Clear 55 12.5 55 12.5 100 100 Calm 30.12 1020 10 16 0.00 0.00
1:15 am 01:15 Clear 55 12.6 55 12.6 100 100 Calm 30.12 1020 10 16 0.00 0.00
1:35 am 01:35 Clear 54 12.1 54 12.1 100 100 Calm 30.12 1020 10 16 0.00 0.00
1:55 am 01:55 Clear 54 12 54 12 100 100 Calm 30.12 1020 10 16 0.00 0.00
2:15 am 02:15 Clear 54 12.1 54 12.1 100 100 Calm 30.12 1020 10 16 0.00 0.00
2:35 am 02:35 Clear 53 11.6 53 11.6 100 100 Calm 30.12 1020 10 16 0.00 0.00
2:55 am 02:55 Clear 53 11.7 53 11.7 100 100 E 3 6 30.12 1020 10 16 0.00 0.00
3:15 am 03:15 Clear 53 11.6 53 11.6 100 100 E 3 6 30.09 1019 10 16 0.00 0.00
3:35 am 03:35 Clear 53 11.4 53 11.4 100 100 Calm 30.09 1019 10 16 0.00 0.00
3:55 am 03:55 Clear 52 11.1 52 11.1 100 100 Calm 30.09 1019 10 16 0.00 0.00
4:15 am 04:15 Clear 52 11.2 52 11.2 100 100 Calm 30.09 1019 10 16 0.00 0.00
4:35 am 04:35 Clear 52 10.9 52 10.9 100 100 E 3 6 30.09 1019 10 16 0.00 0.00
4:55 am 04:55 Clear 51 10.7 51 10.7 100 100 Calm 30.09 1019 7 11 0.00 0.00
5:15 am 05:15 Clear 51 10.4 51 10.4 100 100 Calm 30.12 1020 7 11 0.00 0.00
5:35 am 05:35 Clear 51 10.5 51 10.5 100 100 Calm 30.12 1020 7 11 0.00 0.00
5:55 am 05:55 Clear 51 10.3 51 10.3 100 100 Calm 30.09 1019 10 16 0.00 0.00
6:15 am 06:15 Clear 51 10.5 51 10.5 100 100 Calm 30.09 1019 10 16 0.00 0.00
6:35 am 06:35 Clear 51 10.5 51 10.5 100 100 Calm 30.12 1020 10 16 0.00 0.00
6:55 am 06:55 Clear 51 10.5 51 10.5 100 100 SE 3 6 30.09 1019 10 16 0.00 0.00
7:15 am 07:15 Sunny 53 11.8 53 11.8 100 100 SE 5 7 30.09 1019 10 16 0.00 0.00
7:35 am 07:35 Sunny 55 12.7 54 12.3 97 97 SE 5 7 30.09 1019 10 16 0.00 0.00
7:55 am 07:55 Sunny 56 13.4 55 12.7 96 96 SSE 3 6 30.06 1018 10 16 0.00 0.00
8:15 am 08:15 Sunny 57 14.1 56 13.1 94 94 SSE 3 6 30.09 1019 10 16 0.00 0.00
8:35 am 08:35 Sunny 58 14.5 56 13.6 94 94 SSE 3 6 30.09 1019 10 16 0.00 0.00
8:55 am 08:55 Sunny 59 15.2 57 14 93 93 SSE 5 7 30.09 1019 10 16 0.00 0.00
9:15 am 09:15 Sunny 61 15.9 58 14.3 90 90 SSE 3 6 30.09 1019 10 16 0.00 0.00
9:35 am 09:35 Sunny 62 16.4 58 14.6 89 89 Calm 30.09 1019 10 16 0.00 0.00
9:55 am 09:55 Sunny 63 17 58 14.7 86 86 Calm 30.09 1019 10 16 0.00 0.00
10:15 am 10:15 Sunny 64 17.5 59 14.9 85 85 Calm 30.09 1019 10 16 0.00 0.00
10:35 am 10:35 Sunny 64 18 59 14.8 82 82 SSE 5 7 30.09 1019 10 16 0.00 0.00
10:55 am 10:55 Sunny 66 18.8 58 14.4 76 76 SSE 7 11 30.09 1019 10 16 0.00 0.00
11:15 am 11:15 Sunny 67 19.5 57 13.9 70 70 S 7 11 30.09 1019 10 16 0.00 0.00
11:35 am 11:35 Sunny 69 20.5 58 14.2 67 67 S 8 13 30.09 1019 10 16 0.00 0.00
11:55 am 11:55 Sunny 70 21.3 58 14.4 65 65 S 8 13 30.09 1019 10 16 0.00 0.00
12:15 pm 12:15 Sunny 71 21.6 58 14.5 64 64 S 8 13 30.09 1019 10 16 0.00 0.00
12:35 pm 12:35 Sunny 71 21.5 57 13.9 62 62 SSW 9 15 30.09 1019 10 16 0.00 0.00
12:55 pm 12:55 Sunny 71 21.6 58 14.4 64 64 S 9 15 30.09 1019 10 16 0.00 0.00
1:15 pm 13:15 Sunny 70 21.2 57 14.1 64 64 S 10 17 30.06 1018 10 16 0.00 0.00
1:35 pm 13:35 Sunny 70 21.2 57 14 64 64 S 10 17 30.06 1018 10 16 0.00 0.00
1:55 pm 13:55 Sunny 70 20.9 57 14.1 65 65 S 10 17 30.06 1018 10 16 0.00 0.00
2:15 pm 14:15 Sunny 70 21.1 58 14.5 66 66 S 8 13 30.06 1018 10 16 0.00 0.00
2:35 pm 14:35 Sunny 70 21.3 57 13.9 63 63 S 8 13 30.06 1018 10 16 0.00 0.00
2:55 pm 14:55 Partly Cloudy 69 20.6 58 14.3 67 67 S 7 11 30.03 1017 10 16 0.00 0.00
3:15 pm 15:15 Partly Cloudy 69 20.8 58 14.2 66 66 SSE 9 15 30.03 1017 10 16 0.00 0.00
3:35 pm 15:35 Sunny 71 21.7 59 14.9 65 65 S 13 20 30.00 1016 10 16 0.00 0.00
3:55 pm 15:55 Sunny 73 22.9 60 15.8 64 64 S 12 19 30.00 1016 10 16 0.00 0.00
4:15 pm 16:15 Sunny 74 23.2 60 15.7 63 63 SSW 15 24 30.00 1016 10 16 0.00 0.00
4:35 pm 16:35 Sunny 73 23 60 15.5 63 63 SSW 17 28 30.00 1016 10 16 0.00 0.00
4:55 pm 16:55 Sunny 73 22.8 61 15.9 65 65 SSW 13 20 30.00 1016 10 16 0.00 0.00
5:15 pm 17:15 Partly Cloudy 73 22.6 60 15.5 64 64 SSW 15 24 30.00 1016 10 16 0.00 0.00
5:35 pm 17:35 Partly Cloudy 72 22.4 60 15.8 66 66 SSW 14 22 30.00 1016 10 16 0.00 0.00
5:55 pm 17:55 Mostly Cloudy 71 21.6 60 15.7 69 69 S 15 24 30.00 1016 10 16 0.00 0.00
6:15 pm 18:15 Cloudy 70 21 60 15.4 70 70 S 9 15 30.03 1017 10 16 0.00 0.00
6:35 pm 18:35 Cloudy 70 21.1 59 14.9 68 68 S 12 19 30.03 1017 10 16 0.00 0.00
6:55 pm 18:55 Cloudy 69 20.7 58 14.2 66 66 S 13 20 30.03 1017 10 16 0.00 0.00
7:15 pm 19:15 Cloudy 69 20.4 59 14.9 71 71 S 7 11 30.03 1017 10 16 0.00 0.00
7:35 pm 19:35 Cloudy 69 20.5 58 14.4 68 68 S 13 20 30.03 1017 10 16 0.00 0.00
7:55 pm 19:55 Cloudy 69 20.5 58 14.2 67 67 S 10 17 30.00 1016 10 16 0.00 0.00
8:15 pm 20:15 Cloudy 68 20.1 58 14.6 71 71 S 9 15 30.03 1017 10 16 0.00 0.00
8:35 pm 20:35 Cloudy 68 20 58 14.5 71 71 S 14 22 30.03 1017 10 16 0.00 0.00
8:55 pm 20:55 Cloudy 68 20.1 58 14.4 70 70 S 7 11 30.03 1017 10 16 0.00 0.00
9:15 pm 21:15 Cloudy 68 19.9 58 14.4 71 71 S 9 15 30.03 1017 10 16 0.00 0.00
9:35 pm 21:35 Cloudy 68 19.9 59 14.9 73 73 S 14 22 30.03 1017 10 16 0.00 0.00
9:55 pm 21:55 Cloudy 68 19.8 60 15.3 75 75 S 10 17 30.03 1017 10 16 0.00 0.00
10:15 pm 22:15 Cloudy 67 19.7 60 15.6 77 77 S 12 19 30.03 1017 10 16 0.00 0.00
10:35 pm 22:35 Cloudy 67 19.5 60 15.8 79 79 S 10 17 30.03 1017 10 16 0.00 0.00
10:55 pm 22:55 Cloudy 67 19.5 61 16 80 80 S 8 13 30.03 1017 10 16 0.00 0.00
11:15 pm 23:15 Cloudy 67 19.6 61 16 80 80 S 8 13 30.03 1017 10 16 0.00 0.00
11:35 pm 23:35 Cloudy 67 19.3 61 16.2 82 82 S 9 15 30.03 1017 10 16 0.00 0.00
11:55 pm 23:55 Cloudy 67 19.6 62 16.5 82 82 S 8 13 30.06 1018 10 16 0.00 0.00

Powered by AerisWeather